Regional Weather Roundup
Issued by NWS

Home | Current Version | Previous Version | Graphics & Text | Print | Product List | Glossary On
Versions: 1 2 3 4 5 6 7 8 9 10 11 12 13 14 15 16 17 18 19 20 21 22 23 24 25 26 27 28 29 30 31 32 33 34 35 36 37 38 39 40 41 42 43 44 45 46 47 48 49 50
000
ASUS43 KDTX 242101
RWRMI
MICHIGAN HOURLY REGIONAL WEATHER ROUNDUP
NATIONAL WEATHER SERVICE DETROIT/PONTIAC MI
500 PM EDT MON JUL 24 2017

NOTE: "FAIR" INDICATES FEW OR NO CLOUDS BELOW 12,000 FEET WITH NO
SIGNIFICANT WEATHER AND/OR OBSTRUCTION TO VISIBILITY.

MIZ047>049-052>055-059>063-066>070-074>076-081>083-242200-
SOUTHEAST LOWER MICHIGAN

CITY           SKY/WX    TMP DP  RH WIND       PRES   REMARKS
ADRIAN         PTSUNNY   72  56  57 N7        30.04S
ALMA           FAIR      75  49  39 N9        30.03R
ANN ARBOR      PTSUNNY   74  58  57 N10       30.01S
BAD AXE        PTSUNNY   67  55  66 N17G23    30.02S
CARO           FAIR      70  55  57 N13G22    30.02R
DETROIT CITY   PTSUNNY   73  54  51 N14       30.00R
DETROIT        PTSUNNY   72  55  55 N8G20     30.01R
FLINT          FAIR      72  53  51 N17G23    30.02R
GROSSE ILE     CLOUDY    73  56  53 NE8       29.99S
HILLSDALE      CLOUDY    68  54  60 N3        30.04S
HOWELL         PTSUNNY   73  54  52 NE7       30.03R

CITY           SKY/WX    TMP DP  RH WIND       PRES   REMARKS
JACKSON        PTSUNNY   73  53  49 VRB7      30.04R
LAMBERTVILLE   CLOUDY    68  59  71 N3        30.02S
LANSING        FAIR      76  53  44 NE10      30.03S
LAPEER         CLOUDY    70  55  57 N14G20    30.02R
MASON          PTSUNNY   74  57  55 NE8       30.03S
MONROE         FAIR      72  58  63 N5        30.01S
MT. CLEMENS    PTSUNNY   73  57  57 NW16      29.98R
PONTIAC        PTSUNNY   73  54  51 N14G21    30.00R
PORT HOPE        N/A     70  60  70 CALM      30.00S
PORT HURON     PTSUNNY   68  55  64 N7G18     29.99S
TRI CITIES     FAIR      74  60  61 NE12      30.03S
MIDLAND        FAIR      74  59  58 E9G16     30.02R
TROY           PTSUNNY   73  54  51 N9G21     30.02R
SAGINAW HB     FAIR      70  57  64 NE10      30.02R
$$
MIZ043>046-050>051-056>058-064>065-071>073-077>080-242200-
SOUTHWEST LOWER MICHIGAN

CITY           SKY/WX    TMP DP  RH WIND       PRES   REMARKS
BATTLE CREEK   PTSUNNY   74  55  51 NE13      30.05S
BENTON HARBOR  FAIR      73  61  65 VRB6      30.04S
BIG RAPIDS     PTSUNNY   74  50  42 N6        30.03S
COLDWATER      PTSUNNY   70  56  61 N7        30.04S
FREMONT        PTSUNNY   77  48  35 N5        30.03S
HOLLAND        FAIR      77  55  46 NW5       30.04S
GRAND RAPIDS   PTSUNNY   75  55  49 E7        30.03S
IONIA          CLOUDY    74  54  49 E7        30.03S
KALAMAZOO      PTSUNNY   74  52  46 VRB6      30.04S
LUDINGTON      PTSUNNY   71  57  60 N10G17    30.04S
MARSHALL       PTSUNNY   74  56  54 NE3       30.04R
MOUNT PLEASANT FAIR      78  50  37 N8        30.01S
MUSKEGON       FAIR      79  56  45 NW7       30.02F
SOUTH HAVEN    PTSUNNY   73  63  70 N12G17    30.04S
$$
MIZ016>042-242200-
NORTHERN LOWER MICHIGAN

CITY           SKY/WX    TMP DP  RH WIND       PRES   REMARKS
ALPENA         FAIR      75  52  44 N15       30.04S
BELLAIRE       FAIR      74  48  39 CALM      30.04F
CADILLAC       FAIR      76  49  38 NW8G17    30.05S
CHARLEVOIX     FAIR      71  53  53 N9        30.09F
FRANKFORT      FAIR      73  50  45 N8G16     30.06S
GAYLORD        FAIR      74  42  31 N8G20     30.06S
GRAYLING       FAIR      75  46  36 N10       30.05S
HARBOR SPRINGS FAIR      76  45  33 N9        30.04S
HOUGHTON LAKE  FAIR      76  50  40 N10G17    30.04S
MANISTEE       FAIR      73  54  51 NW10      30.04S
OSCODA         FAIR      74  50  43 NE14G20   30.01F
PELLSTON       FAIR      76  47  35 N5        30.05S
ROGERS CITY    FAIR      71  49  45 N6        30.05S
TRAVERSE CITY  FAIR      75  51  43 N13       30.04F
$$
MIZ007>008-015-242200-
EASTERN UPPER MICHIGAN

CITY           SKY/WX    TMP DP  RH WIND       PRES   REMARKS
KINROSS        FAIR      71  49  45 NW13      30.06R
MACKINAC ISLAN FAIR      73  51  45 N8        30.05S
NEWBERRY       FAIR      69  50  50 N9G16     30.08S
S. S. MARIE    FAIR      71  52  50 NW14      30.05R
MUNISING         N/A     70  59  68 NE8       30.09S
$$
MIZ004>006-011>014-085-242200-
CENTRAL UPPER MICHIGAN

CITY           SKY/WX    TMP DP  RH WIND       PRES   REMARKS
MANISTIQUE     FAIR      74  47  37 N10       30.06F
ESCANABA       FAIR      73  57  57 SE13      30.06F
MENOMINEE      FAIR      72  54  53 SE8       30.08F
SAWYER-GWINN   SUNNY     72  52  49 NE6       30.10S
$$
MIZ001>003-009>011-084-242200-
WESTERN UPPER MICHIGAN

CITY           SKY/WX    TMP DP  RH WIND       PRES   REMARKS
IRON MOUNTAIN  FAIR      77  50  38 SE5       30.06F
HOUGHTON       FAIR      76  51  41 N7        30.07F
COPPER HARBOR    N/A     63  52  67 N15       30.06F
IRONWOOD       FAIR      77  56  48 NW13      30.07S
$$

ABBREVIATIONS USED IN REMARKS
   TC - TEMPERATURE IN CELSIUS
  WCI - WIND CHILL INDEX
   HX - HEAT INDEX
  VSB - VISIBILITY





USA.gov is the U.S. government's official web portal to all federal, state and local government web resources and services.